FW2576 Weather Reports


time (UTC)temp
C
wind
direction
speed
KPH
gust
KPH
rain 1hr
cm
rain 24hr
cm
rain mn
cm
humidity
%
barometer
mb
20260508074924 11 299 0.0 1.6 0.00 0.00 0.00 23 1016.2
20260508074323 11 309 0.0 0.0 0.00 0.00 0.00 24 1016.3
20260508073723 11 288 0.0 0.0 0.00 0.00 0.00 24 1016.4
20260508073123 11 282 0.0 0.0 0.00 0.00 0.00 24 1016.4
20260508072523 11 282 0.0 0.0 0.00 0.00 0.00 23 1016.4
20260508071923 11 260 0.0 0.0 0.00 0.00 0.00 23 1016.5
20260508071323 11 259 0.0 0.0 0.00 0.00 0.00 23 1016.6
20260508070723 11 257 0.0 0.0 0.00 0.00 0.00 23 1016.6
20260508070123 11 256 0.0 0.0 0.00 0.00 0.00 23 1016.7
20260508065523 12 256 0.0 0.0 0.00 0.00 0.00 22 1016.6
20260508064923 12 256 0.0 0.0 0.00 0.00 0.00 22 1016.6
20260508064323 12 256 0.0 0.0 0.00 0.00 0.00 23 1016.6
20260508063723 12 256 0.0 0.0 0.00 0.00 0.00 21 1016.5
20260508063122 12 256 0.0 0.0 0.00 0.00 0.00 21 1016.5
20260508062522 12 256 0.0 0.0 0.00 0.00 0.00 21 1016.5
20260508061922 12 256 0.0 0.0 0.00 0.00 0.00 20 1016.5
20260508061322 13 256 0.0 0.0 0.00 0.00 0.00 20 1016.4
20260508060722 13 255 0.0 0.0 0.00 0.00 0.00 20 1016.5
20260508060122 13 251 0.0 0.0 0.00 0.00 0.00 20 1016.4
20260508055522 13 249 0.0 0.0 0.00 0.00 0.00 20 1016.4
20260508054922 13 249 0.0 0.0 0.00 0.00 0.00 20 1016.4
20260508054322 13 248 0.0 0.0 0.00 0.00 0.00 20 1016.4
20260508053722 13 248 0.0 0.0 0.00 0.00 0.00 19 1016.4
20260508053123 13 248 0.0 0.0 0.00 0.00 0.00 20 1016.4
20260508052523 13 248 0.0 0.0 0.00 0.00 0.00 19 1016.3
20260508051922 13 248 0.0 0.0 0.00 0.00 0.00 19 1016.3
20260508051322 14 249 0.0 0.0 0.00 0.00 0.00 18 1016.4
20260508050722 14 249 0.0 0.0 0.00 0.00 0.00 18 1016.3
20260508050122 14 250 0.0 0.0 0.00 0.00 0.00 18 1016.3
20260508045522 14 250 0.0 0.0 0.00 0.00 0.00 18 1016.3
20260508044922 15 305 0.0 0.0 0.00 0.00 0.00 18 1016.2
20260508044323 15 305 0.0 0.0 0.00 0.00 0.00 18 1016.2
20260508043722 15 305 0.0 0.0 0.00 0.00 0.00 18 1016.1
20260508043122 15 305 0.0 0.0 0.00 0.00 0.00 18 1016.2
20260508042522 15 305 0.0 0.0 0.00 0.00 0.00 17 1016.1
20260508041922 15 305 0.0 0.0 0.00 0.00 0.00 17 1016.1
20260508041322 15 305 0.0 0.0 0.00 0.00 0.00 17 1016.1
20260508040722 15 305 0.0 0.0 0.00 0.00 0.00 16 1016.1
20260508040122 15 307 0.0 0.0 0.00 0.00 0.00 16 1016.1
20260508035523 15 307 0.0 0.0 0.00 0.00 0.00 15 1016.1
20260508034922 16 313 0.0 0.0 0.00 0.00 0.00 15 1016.0
20260508034322 16 315 0.0 0.0 0.00 0.00 0.00 15 1016.0
20260508033722 16 315 0.0 0.0 0.00 0.00 0.00 14 1015.9
20260508033122 16 316 0.0 0.0 0.00 0.00 0.00 14 1015.8
20260508032522 17 313 0.0 0.0 0.00 0.00 0.00 14 1015.7
20260508031922 17 305 0.0 0.0 0.00 0.00 0.00 13 1015.5
20260508031322 17 309 0.0 0.0 0.00 0.00 0.00 13 1015.5
20260508030722 18 309 0.0 0.0 0.00 0.00 0.00 12 1015.4
20260508030122 18 315 0.0 0.0 0.00 0.00 0.00 12 1015.3
20260508025522 18 312 0.0 0.0 0.00 0.00 0.00 12 1015.3
20260508024922 18 318 0.0 0.0 0.00 0.00 0.00 11 1015.2
20260508024322 19 304 0.0 0.0 0.00 0.00 0.00 11 1015.1
20260508023722 20 305 0.0 0.0 0.00 0.00 0.00 11 1015.0
20260508023122 20 292 0.0 0.0 0.00 0.00 0.00 11 1014.9
20260508022522 20 328 0.0 0.0 0.00 0.00 0.00 10 1014.9
20260508021922 20 292 0.0 0.0 0.00 0.00 0.00 10 1014.9
20260508021322 21 292 0.0 0.0 0.00 0.00 0.00 10 1014.7
20260508020722 21 276 0.0 0.0 0.00 0.00 0.00 10 1014.6
20260508020122 21 286 0.0 1.6 0.00 0.00 0.00 10 1014.6
20260508015522 21 307 0.0 4.8 0.00 0.00 0.00 9 1014.5
20260508014922 22 314 1.6 4.8 0.00 0.00 0.00 9 1014.4
20260508014322 22 299 0.0 8.0 0.00 0.00 0.00 10 1014.5
20260508013722 22 335 0.0 1.6 0.00 0.00 0.00 10 1014.4
20260508013122 22 335 0.0 0.0 0.00 0.00 0.00 11 1014.3
20260508012522 22 241 0.0 0.0 0.00 0.00 0.00 14 1014.2
20260508011922 22 233 0.0 0.0 0.00 0.00 0.00 14 1014.2
20260508011322 23 232 0.0 0.0 0.00 0.00 0.00 14 1014.2
20260508010722 23 234 0.0 0.0 0.00 0.00 0.00 13 1014.1
20260508010122 23 232 0.0 4.8 0.00 0.00 0.00 14 1014.1
20260508005522 23 234 0.0 4.8 0.00 0.00 0.00 13 1014.1
20260508004922 23 130 0.0 1.6 0.00 0.00 0.00 13 1014.0
20260508004322 23 147 0.0 8.0 0.00 0.00 0.00 13 1014.1
20260508003722 23 222 0.0 4.8 0.00 0.00 0.00 13 1014.0
20260508003122 24 251 0.0 0.0 0.00 0.00 0.00 13 1013.9
20260508002522 24 127 0.0 0.0 0.00 0.00 0.00 12 1014.0
20260508001922 23 170 0.0 0.0 0.00 0.00 0.00 13 1014.0
20260508001322 23 146 0.0 3.2 0.00 0.00 0.00 13 1013.9
20260508000722 23 147 0.0 9.7 0.00 0.00 0.00 12 1014.1
20260508000122 23 137 0.0 9.7 0.00 0.00 0.00 12 1014.0
20260507235522 23 138 0.0 3.2 0.00 0.00 0.00 13 1014.0
20260507234922 23 167 0.0 11.3 0.00 0.00 0.00 12 1014.0
20260507234322 23 131 3.2 11.3 0.00 0.00 0.00 12 1013.9
20260507233722 23 114 0.0 8.0 0.00 0.00 0.00 13 1014.1
20260507233122 23 147 1.6 12.9 0.00 0.00 0.00 13 1014.2
20260507232522 23 126 1.6 14.5 0.00 0.00 0.00 13 1014.2
20260507231922 24 148 0.0 6.4 0.00 0.00 0.00 13 1014.2
20260507231322 23 164 0.0 8.0 0.00 0.00 0.00 12 1014.4
20260507230722 23 219 0.0 8.0 0.00 0.00 0.00 12 1014.4
20260507230122 23 145 1.6 14.5 0.00 0.00 0.00 13 1014.5
20260507225522 23 132 3.2 9.7 0.00 0.00 0.00 12 1014.5
20260507224922 23 164 0.0 1.6 0.00 0.00 0.00 12 1014.6
20260507224323 23 133 0.0 4.8 0.00 0.00 0.00 12 1014.8
20260507223722 23 212 0.0 1.6 0.00 0.00 0.00 11 1014.7
20260507223122 23 139 0.0 1.6 0.00 0.00 0.00 12 1014.7
20260507222522 23 132 0.0 8.0 0.00 0.00 0.00 12 1014.8
20260507221922 23 134 0.0 4.8 0.00 0.00 0.00 13 1014.9
20260507221322 24 143 0.0 8.0 0.00 0.00 0.00 14 1015.0
20260507220722 23 114 0.0 11.3 0.00 0.00 0.00 14 1015.1
20260507220122 22 131 0.0 12.9 0.00 0.00 0.00 15 1015.3
20260507215522 22 110 1.6 12.9 0.00 0.00 0.00 16 1015.4
20260507214922 22 171 3.2 12.9 0.00 0.00 0.00 16 1015.5
20260507214322 22 142 0.0 8.0 0.00 0.00 0.00 16 1015.6
20260507213722 22 238 0.0 3.2 0.00 0.00 0.00 16 1015.8
20260507213122 22 167 0.0 8.0 0.00 0.00 0.00 15 1015.8
20260507212523 22 170 0.0 8.0 0.00 0.00 0.00 17 1016.0
20260507211922 22 140 0.0 1.6 0.00 0.00 0.00 16 1016.1
20260507211322 22 216 0.0 0.0 0.00 0.00 0.00 16 1016.2
20260507210722 22 125 0.0 6.4 0.00 0.00 0.00 17 1016.4
20260507210122 22 144 0.0 4.8 0.00 0.00 0.00 18 1016.5
20260507205522 22 213 0.0 4.8 0.00 0.00 0.00 16 1016.7
20260507204921 21 143 0.0 3.2 0.00 0.00 0.00 17 1016.8
20260507204322 21 162 0.0 4.8 0.00 0.00 0.00 17 1016.9
20260507203722 21 174 0.0 1.6 0.00 0.00 0.00 18 1017.0
20260507203121 21 251 0.0 6.4 0.00 0.00 0.00 17 1017.1
20260507202521 21 121 0.0 0.0 0.00 0.00 0.00 17 1017.2
20260507201921 22 185 0.0 0.0 0.00 0.00 0.00 17 1017.4
20260507201321 21 130 0.0 4.8 0.00 0.00 0.00 18 1017.5
20260507200722 21 124 0.0 4.8 0.00 0.00 0.00 19 1017.6
20260507200122 20 138 0.0 3.2 0.00 0.00 0.00 20 1017.6
20260507195521 20 114 0.0 3.2 0.00 0.00 0.00 20 1017.8
20260507194921 20 170 0.0 0.0 0.00 0.00 0.00 20 1018.0
20260507194321 19 164 0.0 0.0 0.00 0.00 0.00 20 1018.1
20260507193722 20 234 0.0 0.0 0.00 0.00 0.00 20 1018.2
20260507193122 19 211 0.0 11.3 0.00 0.00 0.00 21 1018.3
20260507192521 20 155 1.6 11.3 0.00 0.00 0.00 21 1018.3
20260507191922 20 124 0.0 0.0 0.00 0.00 0.00 22 1018.5
20260507191321 19 48 0.0 0.0 0.00 0.00 0.00 22 1018.5
20260507190721 18 134 0.0 0.0 0.00 0.00 0.00 23 1018.7
20260507190122 19 103 0.0 0.0 0.00 0.00 0.00 23 1018.8
20260507185522 18 177 0.0 0.0 0.00 0.00 0.00 24 1019.0
20260507184921 18 182 0.0 1.6 0.00 0.00 0.00 25 1019.1
20260507184321 18 145 0.0 9.7 0.00 0.00 0.00 23 1019.3
20260507183721 18 32 1.6 9.7 0.00 0.00 0.00 23 1019.3
20260507183121 18 359 0.0 4.8 0.00 0.00 0.00 23 1019.4
20260507182521 18 142 0.0 9.7 0.00 0.00 0.00 23 1019.5
20260507181921 18 68 3.2 9.7 0.00 0.00 0.00 24 1019.6
20260507181321 17 87 0.0 0.0 0.00 0.00 0.00 25 1019.8
20260507180721 17 14 0.0 0.0 0.00 0.00 0.00 27 1019.9
20260507180121 17 78 0.0 0.0 0.00 0.00 0.00 28 1020.0
20260507175521 16 116 0.0 0.0 0.00 0.00 0.00 29 1020.1
20260507174921 16 137 0.0 0.0 0.00 0.00 0.00 30 1020.1
20260507174321 16 166 0.0 4.8 0.00 0.00 0.00 30 1020.2
20260507173721 15 112 1.6 4.8 0.00 0.00 0.00 30 1020.4
20260507173121 15 355 0.0 3.2 0.00 0.00 0.00 30 1020.5
20260507172521 16 312 0.0 1.6 0.00 0.00 0.00 30 1020.6
20260507171921 16 4 0.0 4.8 0.00 0.00 0.00 29 1020.8
20260507171321 16 66 0.0 11.3 0.00 0.00 0.00 30 1020.9
20260507170721 16 44 1.6 8.0 0.00 0.00 0.00 30 1021.0
20260507170122 15 27 1.6 8.0 0.00 0.00 0.00 34 1021.0
20260507165521 15 44 0.0 6.4 0.00 0.00 0.00 35 1021.0
20260507164921 14 35 1.6 12.9 0.00 0.00 0.00 35 1021.1
20260507164321 14 357 1.6 12.9 0.00 0.00 0.00 36 1021.2
20260507163721 13 24 4.8 16.1 0.00 0.00 0.00 38 1021.3
20260507163121 13 68 1.6 11.3 0.00 0.00 0.00 40 1021.3
20260507162521 12 43 3.2 11.3 0.00 0.00 0.00 42 1021.4
20260507161921 12 36 6.4 12.9 0.00 0.00 0.00 44 1021.5
20260507161321 12 345 1.6 12.9 0.00 0.00 0.00 45 1021.5
20260507160721 11 350 8.0 12.9 0.00 0.00 0.00 47 1021.7
20260507160121 11 355 1.6 12.9 0.00 0.00 0.00 48 1021.6
20260507155521 11 18 8.0 12.9 0.00 0.00 0.00 48 1021.7
20260507154921 11 356 1.6 16.1 0.00 0.00 0.00 50 1021.7
20260507154321 11 35 8.0 14.5 0.00 0.00 0.00 50 1021.8
20260507153721 10 10 8.0 12.9 0.00 0.00 0.00 51 1021.8
20260507153121 10 345 6.4 14.5 0.00 0.00 0.00 54 1021.9
20260507152521 9 57 9.7 14.5 0.00 0.00 0.00 55 1022.0
20260507151921 9 4 4.8 14.5 0.00 0.00 0.00 55 1022.0
20260507151320 9 18 6.4 14.5 0.00 0.00 0.00 56 1022.0
20260507150720 8 48 4.8 16.1 0.00 0.00 0.00 57 1022.0
20260507150120 8 351 3.2 16.1 0.00 0.00 0.00 57 1022.0
20260507145520 8 335 4.8 16.1 0.00 0.00 0.00 58 1022.1
20260507144920 8 8 8.0 19.3 0.00 0.00 0.00 61 1022.1
20260507144320 7 20 4.8 17.7 0.00 0.00 0.00 63 1022.2
20260507143720 7 359 11.3 17.7 0.00 0.00 0.00 64 1022.2
20260507143121 7 10 11.3 17.7 0.00 0.00 0.00 65 1022.2
20260507142520 6 14 9.7 16.1 0.00 0.00 0.00 66 1022.3
20260507141920 6 335 12.9 19.3 0.00 0.00 0.00 66 1022.2
20260507141319 6 352 14.5 19.3 0.00 0.00 0.00 67 1022.3
20260507140720 6 4 12.9 24.1 0.00 0.00 0.00 68 1022.3
20260507140120 6 352 11.3 19.3 0.00 0.00 0.00 69 1022.4
20260507135520 6 357 12.9 20.9 0.00 0.00 0.00 70 1022.5
20260507134920 6 355 11.3 20.9 0.00 0.00 0.00 70 1022.4
20260507134319 5 22 12.9 20.9 0.00 0.00 0.00 71 1022.5
20260507133719 5 330 14.5 19.3 0.00 0.00 0.00 71 1022.4
20260507133119 5 351 9.7 17.7 0.00 0.00 0.00 72 1022.2
20260507132520 5 345 6.4 16.1 0.00 0.00 0.00 72 1022.2
20260507131919 5 349 9.7 14.5 0.00 0.00 0.00 71 1022.2
20260507131319 5 357 4.8 11.3 0.00 0.00 0.00 72 1022.1
20260507130719 4 345 1.6 11.3 0.00 0.00 0.00 73 1022.2
20260507130119 4 345 4.8 11.3 0.00 0.00 0.00 73 1022.2
20260507125519 4 12 0.0 8.0 0.00 0.00 0.00 72 1022.1
20260507124919 3 340 1.6 6.4 0.00 0.00 0.00 72 1022.1
20260507124320 3 340 1.6 6.4 0.00 0.00 0.00 72 1022.1
20260507123720 3 355 0.0 4.8 0.00 0.00 0.00 71 1022.1
20260507123120 4 9 0.0 4.8 0.00 0.00 0.00 71 1022.0
20260507122519 4 13 0.0 3.2 0.00 0.00 0.00 71 1021.9
20260507121920 4 6 0.0 1.6 0.00 0.00 0.00 71 1021.8
20260507121319 4 359 0.0 1.6 0.00 0.00 0.00 71 1021.7
20260507120719 4 345 0.0 3.2 0.00 0.00 0.00 70 1021.7
20260507120119 4 335 0.0 0.0 0.00 0.00 0.00 70 1021.6
20260507115519 4 340 0.0 0.0 0.00 0.00 0.00 70 1021.6
20260507114919 4 340 0.0 3.2 0.00 0.00 0.00 69 1021.6
20260507114319 5 340 0.0 3.2 0.00 0.00 0.00 69 1021.6
20260507113719 5 335 0.0 4.8 0.00 0.00 0.00 69 1021.6
20260507113119 4 335 0.0 0.0 0.00 0.00 0.00 69 1021.6
20260507112520 4 323 0.0 0.0 0.00 0.00 0.00 68 1021.6
20260507111919 4 340 0.0 1.6 0.00 0.00 0.00 68 1021.7
20260507111319 4 353 0.0 1.6 0.00 0.00 0.00 67 1021.8
20260507110720 4 345 0.0 0.0 0.00 0.00 0.00 64 1021.7
20260507110119 4 340 0.0 0.0 0.00 0.00 0.00 63 1021.6
20260507105519 4 340 0.0 0.0 0.00 0.00 0.00 62 1021.6
20260507104919 4 345 0.0 0.0 0.00 0.00 0.00 59 1021.6
20260507104319 4 340 0.0 0.0 0.00 0.00 0.00 58 1021.6
20260507103720 5 345 0.0 0.0 0.00 0.00 0.00 55 1021.6
20260507103119 5 345 0.0 0.0 0.00 0.00 0.00 53 1021.5
20260507102519 5 340 0.0 0.0 0.00 0.00 0.00 53 1021.5
20260507101920 5 345 0.0 0.0 0.00 0.00 0.00 52 1021.5
20260507101319 5 350 0.0 0.0 0.00 0.00 0.00 54 1021.5
20260507100719 5 345 0.0 0.0 0.00 0.00 0.00 52 1021.5
20260507100119 5 340 0.0 0.0 0.00 0.00 0.00 49 1021.5
20260507095519 5 345 0.0 0.0 0.00 0.00 0.00 48 1021.5
20260507094919 5 345 0.0 0.0 0.00 0.00 0.00 46 1021.4
20260507094319 5 345 0.0 0.0 0.00 0.00 0.00 44 1021.5
20260507093719 5 345 0.0 0.0 0.00 0.00 0.00 45 1021.3
20260507093119 5 345 0.0 0.0 0.00 0.00 0.00 43 1021.3
20260507092519 6 345 0.0 0.0 0.00 0.00 0.00 41 1021.3
20260507091919 6 345 0.0 0.0 0.00 0.00 0.00 40 1021.2
20260507091319 6 353 0.0 0.0 0.00 0.00 0.00 39 1021.1
20260507090719 6 352 0.0 0.0 0.00 0.00 0.00 38 1021.3
20260507090119 6 26 0.0 0.0 0.00 0.00 0.00 38 1021.4
20260507085519 6 8 0.0 0.0 0.00 0.00 0.00 38 1021.4
20260507084919 6 8 0.0 0.0 0.00 0.00 0.00 37 1021.1
20260507084319 6 9 0.0 0.0 0.00 0.00 0.00 37 1021.2
20260507083719 7 356 0.0 0.0 0.00 0.00 0.00 37 1021.1
20260507083118 7 356 0.0 0.0 0.00 0.00 0.00 37 1021.1
20260507082519 7 8 0.0 0.0 0.00 0.00 0.00 37 1021.1
20260507081919 6 3 0.0 3.2 0.00 0.00 0.00 37 1021.0
20260507081319 6 7 0.0 3.2 0.00 0.00 0.00 39 1021.0
20260507080720 6 345 0.0 0.0 0.00 0.00 0.00 38 1020.9
20260507080119 6 340 0.0 0.0 0.00 0.00 0.00 38 1020.9
20260507075518 6 335 0.0 0.0 0.00 0.00 0.00 38 1020.8